Location: Mladá Boleslav
(50.4134°N, 14.9084°E)
Time: 16:32:24
(UTC+02:00)

KKS-1 - Pass Details

Date: 01 June 2024
Orbit: 626 x 640 km, 98.1° (Epoch: 20 June)

Event Time Altitude Azimuth Distance (km) Brightness Sun altitude
Rises 01:55:23 0° 2° (N) 2,939 ? -16.4°
Reaches altitude 10° 01:58:12 10° 343° (NNW) 2,023 ? -16.3°
Maximum altitude 02:01:05 18° 302° (WNW) 1,576 ? -16.2°
Drops below altitude 10° 02:03:58 10° 260° (W) 2,009 ? -16.0°
Enters shadow 02:04:28 - 256° (WSW) 2,150 ? -16.0°
